GW6317 Weather Reports


Display with metric or nautical units.
time (UTC)temp
F
wind
direction
speed
MPH
gust
MPH
rain 1hr
in
rain 24hr
in
rain mn
in
humidity
%
barometer
mb
20260503055013 54 207 1.0 2.0 0.00 0.00 0.00 44 1016.9
20260503054534 54 340 0.0 2.0 0.00 0.00 0.00 43 1016.9
20260503054015 54 0 0.0 2.0 0.00 0.00 0.00 43 1017.0
20260503053515 54 51 0.0 3.0 0.00 0.00 0.00 43 1016.9
20260503053034 54 55 1.0 8.0 0.00 0.00 0.00 44 1016.8
20260503052514 54 10 2.0 8.0 0.00 0.00 0.00 45 1016.8
20260503052018 54 5 4.0 6.0 0.00 0.00 0.00 45 1016.7
20260503051531 54 9 3.0 7.0 0.00 0.00 0.00 46 1017.0
20260503051014 53 15 4.0 7.0 0.00 0.00 0.00 48 1016.9
20260503050513 53 14 4.0 5.0 0.00 0.00 0.00 48 1016.9
20260503050031 53 352 3.0 5.0 0.00 0.00 0.00 50 1016.9
20260503045517 53 33 2.0 5.0 0.00 0.00 0.00 50 1017.1
20260503045015 53 30 1.0 6.0 0.00 0.00 0.00 50 1017.0
20260503044528 53 17 2.0 6.0 0.00 0.00 0.00 50 1017.0
20260503044013 53 69 1.0 2.0 0.00 0.00 0.00 50 1017.0
20260503043515 53 89 1.0 4.0 0.00 0.00 0.00 50 1017.0
20260503043031 53 121 1.0 6.0 0.00 0.00 0.00 51 1017.0
20260503042514 54 159 2.0 6.0 0.00 0.00 0.00 51 1016.9
20260503042016 54 169 3.0 14.0 0.00 0.00 0.00 50 1017.0
20260503041531 55 183 5.0 14.0 0.00 0.00 0.00 50 1016.9
20260503041017 56 186 6.0 11.0 0.00 0.00 0.00 44 1017.0
20260503040516 56 169 4.0 8.0 0.00 0.00 0.00 41 1016.5
20260503040031 57 203 2.0 7.0 0.00 0.00 0.00 41 1016.3
20260503035515 57 65 3.0 7.0 0.00 0.00 0.00 39 1016.1
20260503035014 57 77 3.0 8.0 0.00 0.00 0.00 40 1016.0
20260503034530 56 61 4.0 8.0 0.00 0.00 0.00 40 1015.9
20260503034013 56 34 4.0 8.0 0.00 0.00 0.00 41 1015.9
20260503033519 56 36 2.0 6.0 0.00 0.00 0.00 40 1016.0
20260503033032 56 123 2.0 8.0 0.00 0.00 0.00 40 1015.8
20260503032516 56 86 3.0 8.0 0.00 0.00 0.00 40 1015.7
20260503032015 55 97 3.0 7.0 0.00 0.00 0.00 40 1015.8
20260503031532 55 61 2.0 6.0 0.00 0.00 0.00 41 1015.8
20260503031016 55 76 2.0 6.0 0.00 0.00 0.00 42 1015.7
20260503030517 55 129 3.0 9.0 0.00 0.00 0.00 42 1015.6
20260503030031 55 24 3.0 9.0 0.00 0.00 0.00 42 1015.6
20260503025514 56 78 3.0 10.0 0.00 0.00 0.00 43 1015.5
20260503025013 56 55 3.0 12.0 0.00 0.00 0.00 43 1015.6
20260503024533 56 53 5.0 12.0 0.00 0.00 0.00 42 1015.4
20260503024014 57 106 6.0 12.0 0.00 0.00 0.00 41 1015.6
20260503023514 57 51 3.0 6.0 0.00 0.00 0.00 41 1015.8
20260503023030 57 62 2.0 9.0 0.00 0.00 0.00 41 1015.7
20260503022515 58 161 3.0 9.0 0.00 0.00 0.00 40 1015.8
20260503022014 58 107 2.0 9.0 0.00 0.00 0.00 40 1015.7
20260503021530 58 165 2.0 9.0 0.00 0.00 0.00 38 1015.6
20260503021014 58 154 3.0 9.0 0.00 0.00 0.00 38 1015.5
20260503020514 58 133 2.0 10.0 0.00 0.00 0.00 37 1015.5
20260503020031 58 214 3.0 14.0 0.00 0.00 0.00 37 1015.3
20260503015513 58 108 5.0 14.0 0.00 0.00 0.00 37 1015.2
20260503015013 58 151 6.0 11.0 0.00 0.00 0.00 38 1015.1
20260503014534 58 145 5.0 13.0 0.00 0.00 0.00 37 1015.3
20260503014014 59 118 3.0 11.0 0.00 0.00 0.00 38 1015.3
20260503013514 59 301 5.0 17.0 0.00 0.00 0.00 38 1015.3
20260503013030 59 154 7.0 17.0 0.00 0.00 0.00 37 1015.1
20260503012514 59 144 8.0 20.0 0.00 0.00 0.00 38 1015.2
20260503012019 60 123 7.0 20.0 0.00 0.00 0.00 37 1015.1
20260503011532 60 65 6.0 14.0 0.00 0.00 0.00 36 1015.2
20260503011016 61 61 5.0 17.0 0.00 0.00 0.00 36 1015.1
20260503010514 62 65 7.0 17.0 0.00 0.00 0.00 35 1015.1
20260503010036 63 159 7.0 15.0 0.00 0.00 0.00 33 1015.0
20260503005514 64 263 3.0 12.0 0.00 0.00 0.00 33 1014.9
20260503005016 65 248 3.0 13.0 0.00 0.00 0.00 33 1014.8
20260503004532 65 227 4.0 13.0 0.00 0.00 0.00 32 1014.8
20260503004015 66 117 2.0 8.0 0.00 0.00 0.00 33 1014.7
20260503003513 65 169 4.0 9.0 0.00 0.00 0.00 33 1014.7
20260503003047 64 307 3.0 9.0 0.00 0.00 0.00 34 1014.8
20260503002513 64 41 3.0 8.0 0.00 0.00 0.00 34 1014.8
20260503002019 64 178 2.0 8.0 0.00 0.00 0.00 35 1014.8
20260503001556 64 163 3.0 11.0 0.00 0.00 0.00 34 1014.7
20260503001015 65 56 2.0 12.0 0.00 0.00 0.00 33 1014.8
20260503000514 65 173 2.0 12.0 0.00 0.00 0.00 33 1014.7
20260503000038 65 162 4.0 21.0 0.00 0.00 0.00 33 1014.8
20260502235514 65 102 7.0 21.0 0.00 0.00 0.00 31 1014.8
20260502235014 65 107 3.0 10.0 0.00 0.00 0.00 32 1015.0
20260502234536 65 263 4.0 10.0 0.00 0.00 0.00 31 1014.8
20260502234016 66 163 2.0 10.0 0.00 0.00 0.00 32 1015.0
20260502233516 66 173 4.0 10.0 0.00 0.00 0.00 32 1015.1
20260502233032 66 168 4.0 12.0 0.00 0.00 0.00 31 1015.1
20260502232513 67 160 3.0 12.0 0.00 0.00 0.00 31 1015.2
20260502232013 68 81 4.0 11.0 0.00 0.00 0.00 31 1015.1
20260502231531 68 330 2.0 12.0 0.00 0.00 0.00 31 1015.2
20260502231014 67 171 4.0 12.0 0.00 0.00 0.00 31 1015.3
20260502230517 67 225 3.0 10.0 0.00 0.00 0.00 31 1015.3
20260502230036 67 151 2.0 13.0 0.00 0.00 0.00 31 1015.4
20260502225514 67 116 4.0 13.0 0.00 0.00 0.00 31 1015.6
20260502225018 68 221 4.0 11.0 0.00 0.00 0.00 32 1015.6
20260502224529 69 197 4.0 11.0 0.00 0.00 0.00 33 1015.7
20260502224018 68 262 3.0 12.0 0.00 0.00 0.00 34 1015.9
20260502223516 67 261 3.0 12.0 0.00 0.00 0.00 35 1015.8
20260502223033 67 169 4.0 12.0 0.00 0.00 0.00 34 1015.9
20260502222514 67 11 3.0 11.0 0.00 0.00 0.00 34 1015.8
20260502222014 68 169 3.0 9.0 0.00 0.00 0.00 33 1016.1
20260502221530 68 75 3.0 11.0 0.00 0.00 0.00 33 1016.2
20260502221014 69 107 5.0 12.0 0.00 0.00 0.00 31 1016.2
20260502220516 68 306 4.0 12.0 0.00 0.00 0.00 35 1016.3
20260502220034 67 148 3.0 10.0 0.00 0.00 0.00 33 1016.3
20260502215515 67 254 3.0 10.0 0.00 0.00 0.00 33 1016.3
20260502215016 67 296 3.0 10.0 0.00 0.00 0.00 33 1016.3
20260502214545 67 341 3.0 10.0 0.00 0.00 0.00 32 1016.5
20260502214014 67 247 5.0 10.0 0.00 0.00 0.00 32 1016.5
20260502213516 68 136 3.0 10.0 0.00 0.00 0.00 34 1016.4
20260502213036 68 136 4.0 10.0 0.00 0.00 0.00 35 1016.4
20260502212516 68 180 3.0 10.0 0.00 0.00 0.00 35 1016.3
20260502212018 66 161 4.0 10.0 0.00 0.00 0.00 36 1016.3
20260502211532 65 82 3.0 9.0 0.00 0.00 0.00 38 1016.3
20260502211013 65 196 3.0 9.0 0.00 0.00 0.00 37 1016.3
20260502210515 65 64 3.0 9.0 0.00 0.00 0.00 38 1016.3
20260502210030 64 90 2.0 7.0 0.00 0.00 0.00 38 1016.3
20260502205516 64 209 2.0 6.0 0.00 0.00 0.00 36 1016.3
20260502205014 63 129 2.0 6.0 0.00 0.00 0.00 37 1016.5
20260502204531 64 300 2.0 7.0 0.00 0.00 0.00 38 1016.5
20260502204017 64 20 2.0 8.0 0.00 0.00 0.00 36 1016.7
20260502203515 64 110 3.0 8.0 0.00 0.00 0.00 37 1016.7
20260502203030 64 161 2.0 10.0 0.00 0.00 0.00 36 1016.8
20260502202516 64 77 4.0 10.0 0.00 0.00 0.00 36 1016.7
20260502202016 64 352 3.0 12.0 0.00 0.00 0.00 36 1016.7
20260502201533 64 108 4.0 12.0 0.00 0.00 0.00 36 1016.9
20260502201014 64 148 1.0 7.0 0.00 0.00 0.00 35 1016.7
20260502200514 64 97 3.0 7.0 0.00 0.00 0.00 34 1016.9
20260502200032 64 38 2.0 10.0 0.00 0.00 0.00 35 1016.8
20260502195514 64 42 2.0 10.0 0.00 0.00 0.00 34 1016.9
20260502195013 65 205 3.0 10.0 0.00 0.00 0.00 35 1017.1
20260502194531 65 11 3.0 10.0 0.00 0.00 0.00 34 1017.0
20260502194014 65 121 3.0 8.0 0.00 0.00 0.00 33 1017.0
20260502193515 65 148 2.0 11.0 0.00 0.00 0.00 36 1017.1
20260502193032 65 88 4.0 11.0 0.00 0.00 0.00 34 1017.2
20260502192513 66 180 3.0 8.0 0.00 0.00 0.00 34 1016.9
20260502192015 65 215 2.0 8.0 0.00 0.00 0.00 35 1017.0
20260502191533 65 191 4.0 9.0 0.00 0.00 0.00 34 1017.0
20260502191013 64 154 4.0 9.0 0.00 0.00 0.00 37 1017.2
20260502190517 64 167 3.0 9.0 0.00 0.00 0.00 37 1017.0
20260502190038 63 173 2.0 7.0 0.00 0.00 0.00 37 1017.0
20260502185520 63 128 2.0 8.0 0.00 0.00 0.00 37 1016.9
20260502185015 63 118 2.0 8.0 0.00 0.00 0.00 36 1017.0
20260502184551 63 213 4.0 9.0 0.00 0.00 0.00 36 1017.0
20260502184015 64 31 3.0 12.0 0.00 0.00 0.00 33 1017.0
20260502183515 65 165 3.0 11.0 0.00 0.00 0.00 33 1016.9
20260502183032 65 200 3.0 11.0 0.00 0.00 0.00 31 1016.9
20260502182514 66 194 2.0 9.0 0.00 0.00 0.00 32 1016.9
20260502182015 66 154 4.0 10.0 0.00 0.00 0.00 31 1016.8
20260502181533 66 194 3.0 10.0 0.00 0.00 0.00 34 1016.7
20260502181019 66 219 4.0 10.0 0.00 0.00 0.00 32 1016.8
20260502180516 66 15 4.0 10.0 0.00 0.00 0.00 30 1016.7
20260502170516 65 114 3.0 10.0 0.00 0.00 0.00 29 1016.4
20260502164021 63 67 2.0 6.0 0.00 0.00 0.00 28 1016.5
20260502163515 62 189 2.0 6.0 0.00 0.00 0.00 28 1016.4
20260502163037 61 82 2.0 6.0 0.00 0.00 0.00 27 1016.5
20260502162515 60 132 1.0 7.0 0.00 0.00 0.00 30 1016.5
20260502162019 60 146 2.0 7.0 0.00 0.00 0.00 28 1016.5
20260502161536 59 344 1.0 7.0 0.00 0.00 0.00 31 1016.5
20260502161015 58 127 1.0 6.0 0.00 0.00 0.00 31 1016.5
20260502160519 58 140 2.0 7.0 0.00 0.00 0.00 30 1016.5
20260502152016 57 154 1.0 3.0 0.00 0.00 0.00 30 1016.1
20260502151530 57 173 1.0 8.0 0.00 0.00 0.00 30 1016.1
20260502151015 57 154 1.0 8.0 0.00 0.00 0.00 28 1016.0
20260502150515 57 194 1.0 6.0 0.00 0.00 0.00 28 1015.9
20260502130516 54 134 1.0 4.0 0.00 0.00 0.00 24 1015.3
20260502123515 53 78 1.0 2.0 0.00 0.00 0.00 26 1015.6
20260502123036 53 0 0.0 3.0 0.00 0.00 0.00 25 1015.7
20260502122515 53 161 0.0 3.0 0.00 0.00 0.00 26 1015.6
20260502122017 53 0 0.0 2.0 0.00 0.00 0.00 25 1015.5
20260502121532 54 165 1.0 3.0 0.00 0.00 0.00 24 1015.6
20260502121015 54 137 1.0 3.0 0.00 0.00 0.00 24 1015.5
20260502120515 55 125 0.0 3.0 0.00 0.00 0.00 22 1015.4
20260502115515 54 103 2.0 4.0 0.00 0.00 0.00 22 1015.2
20260502115015 55 58 0.0 2.0 0.00 0.00 0.00 22 1015.3
20260502114534 55 78 0.0 3.0 0.00 0.00 0.00 22 1015.3
20260502114021 54 0 1.0 7.0 0.00 0.00 0.00 23 1015.3
20260502113515 54 61 2.0 8.0 0.00 0.00 0.00 23 1015.4
20260502113037 54 146 2.0 8.0 0.00 0.00 0.00 23 1015.4
20260502112514 54 94 1.0 5.0 0.00 0.00 0.00 23 1015.4
20260502112015 54 83 1.0 5.0 0.00 0.00 0.00 24 1015.5
20260502111534 54 5 1.0 4.0 0.00 0.00 0.00 24 1015.5
20260502111107 54 93 2.0 8.0 0.00 0.00 0.00 24 1015.6
20260502110515 54 73 1.0 8.0 0.00 0.00 0.00 24 1015.6
20260502110030 53 26 2.0 4.0 0.00 0.00 0.00 25 1015.6
20260502105516 53 92 1.0 4.0 0.00 0.00 0.00 24 1015.7
20260502105016 53 61 1.0 5.0 0.00 0.00 0.00 25 1015.7
20260502104537 53 107 1.0 5.0 0.00 0.00 0.00 25 1015.8
20260502104015 53 0 1.0 5.0 0.00 0.00 0.00 26 1015.8
20260502103515 53 0 1.0 4.0 0.00 0.00 0.00 26 1015.8
20260502103032 53 130 1.0 4.0 0.00 0.00 0.00 26 1015.7
20260502102515 53 133 1.0 4.0 0.00 0.00 0.00 26 1015.8
20260502102016 54 123 1.0 4.0 0.00 0.00 0.00 26 1015.8
20260502101530 54 134 1.0 4.0 0.00 0.00 0.00 25 1015.7
20260502101014 54 97 1.0 3.0 0.00 0.00 0.00 25 1015.8
20260502100514 54 130 1.0 3.0 0.00 0.00 0.00 25 1015.8
20260502091532 54 100 1.0 4.0 0.00 0.00 0.00 27 1016.2
20260502091015 54 70 2.0 4.0 0.00 0.00 0.00 29 1016.3
20260502090514 54 360 0.0 3.0 0.00 0.00 0.00 34 1016.3
20260502071534 54 0 0.0 0.0 0.00 0.00 0.00 40 1017.2
20260502071015 54 0 0.0 0.0 0.00 0.00 0.00 41 1017.2
20260502070543 53 0 0.0 0.0 0.00 0.00 0.00 41 1017.2
20260502070044 53 0 0.0 2.0 0.00 0.00 0.00 41 1017.2
20260502065514 53 0 0.0 2.0 0.00 0.00 0.00 41 1017.2
20260502065014 53 0 0.0 2.0 0.00 0.00 0.00 41 1017.3
20260502064530 53 0 0.0 2.0 0.00 0.00 0.00 42 1017.3
20260502064014 54 160 1.0 2.0 0.00 0.00 0.00 40 1017.2
20260502063514 54 175 0.0 2.0 0.00 0.00 0.00 40 1017.3
20260502063034 54 0 0.0 0.0 0.00 0.00 0.00 40 1017.3
20260502062514 54 0 0.0 0.0 0.00 0.00 0.00 40 1017.4
20260502062020 54 0 0.0 0.0 0.00 0.00 0.00 40 1017.4
20260502061533 54 0 0.0 0.0 0.00 0.00 0.00 41 1017.4